Flag for Germany Weather past 2 weeks in Dinslaken, North Rhine-Westphalia, Germany

Now
79 °F

Overcast.


Feels Like: 79 °F
Forecast: 65 / 82 °F
Wind: 2 mph from Southeast

Location: Essen

Current Time: Aug 1, 2014 at 5:22:15 PM

Latest Report: Aug 1, 2014 at 5:00 PM


Visibility: 22 mi

Pressure: 29.81 "Hg

Humidity: 43%

Dew point: 54 °F

Location of DinslakenLocation

Historic Weather in Dinslaken — Graph

°F

Dinslaken temperature yesterday

Maximum temperature yesterday: 76 °F (at 7:00 PM)
Minimum temperature yesterday: 56 °F (at 7:00 AM)
Average temperature yesterday: 67 °F

Past Weeks' High & Low Weather Summary

 TemperatureHumidityPressure
High92 °F (Jul 19, 5:00 PM)100% (Jul 26, 6:00 AM)30.14 "Hg (Jul 26, 6:00 AM)
Low56 °F (Jul 31, 7:00 AM)27% (Jul 19, 1:00 PM)29.75 "Hg (Jul 20, 5:00 AM)
Average71 °F70%29.93 "Hg
* Reported Jul 17 4:00 PM — Aug 1 4:00 PM, Dinslaken, Weather by CustomWeather, © 2014

Note: Actual official high and low records may vary slightly from our data, if they occured in-between our weather recording intervals... More about our weather records

Advertising

Dinslaken weather history for previous 24 hours

 ConditionsComfort  
Time TempWeatherWind HumidityBarometerVisibility
4:00 PM
Aug 1
81 °FScattered clouds.3 mph38%29.81 "Hg28 mi
3:00 PM78 °FPartly sunny.2 mph43%29.82 "Hg22 mi
2:00 PM79 °FPartly sunny.3 mph43%29.83 "Hg19 mi
1:00 PM77 °FPartly sunny.3 mph45%29.85 "Hg22 mi
12:00 PM76 °FPassing clouds.3 mph48%29.85 "Hg28 mi
11:00 AM75 °FPartly sunny.3 mphN/A29.86 "Hg19 mi
10:00 AM72 °FPartly sunny.2 mph58%29.87 "Hg19 mi
9:00 AM69 °FOvercast.3 mph63%29.87 "Hg19 mi
8:00 AM66 °FOvercast.2 mph68%29.87 "Hg17 mi
7:00 AM64 °FPartly sunny.2 mph70%29.88 "Hg17 mi
6:00 AM64 °FPassing clouds.3 mph69%29.88 "Hg18 mi
5:00 AM64 °FOvercast.3 mph67%29.88 "Hg18 mi
4:00 AM63 °FOvercast.2 mph72%29.89 "Hg16 mi
3:00 AM63 °FOvercast.2 mph75%29.90 "Hg14 mi
2:00 AM64 °FOvercast.2 mph71%29.91 "Hg16 mi
1:00 AM66 °FOvercast.2 mph66%29.92 "Hg16 mi
12:00 AM65 °FOvercast.2 mph72%29.92 "Hg15 mi
11:00 PM
Jul 31
68 °FOvercast.2 mph66%29.93 "Hg14 mi
10:00 PM68 °FOvercast.2 mph57%29.93 "Hg16 mi
9:00 PM71 °FOvercast.No wind50%29.92 "Hg19 mi
8:00 PM75 °FPartly sunny.1 mph39%29.92 "Hg22 mi
7:00 PM76 °FSunny.2 mph37%29.93 "Hg22 mi
6:00 PM76 °FPartly sunny.1 mph37%29.94 "Hg19 mi
5:00 PM76 °FScattered clouds.2 mph40%29.95 "Hg19 mi
Weather by CustomWeather, © 2014

See weather overviewHow to use our weather pages